Weather History for KAIA - October, 2013

Change the Weather History Date:

Wednesday, October 2, 2013

  Actual Average Record
Temperature  
Mean Temperature 54 °F 52 °F  
Max Temperature 67 °F 68 °F 92 °F (2005)
Min Temperature 41 °F 35 °F 21 °F (2009)
Degree Days  
Heating Degree Days 11 14  
Month to date heating degree days 22 27  
Since 1 July heating degree days 151 272  
Cooling Degree Days 0 0  
Month to date cooling degree days 0 0  
Year to date cooling degree days 795 563  
Growing Degree Days 4 (Base 50)    
Moisture  
Dew Point 39 °F    
Average Humidity 65    
Maximum Humidity 100    
Minimum Humidity 29    
Precipitation  
Precipitation 0.00 in 0.05 in 0.30 in (1927)
Month to date precipitation 0.00 0.10  
Year to date precipitation 11.94 13.90  
Sea Level Pressure  
Sea Level Pressure 29.89 in    
Wind  
Wind Speed 10 mph (NNE)    
Max Wind Speed 23 mph    
Max Gust Speed 29 mph    
Visibility 10 miles    
Events      
T = Trace of Precipitation, MM = Missing Value Source: NWS Daily Summary

Daily Weather History Graph

Daily Weather History Graph

Search for Another Location

Airport or City:

Trip Planner

Search our weather history database for the weather conditions in past years. The results will help you decide how hot, cold, wet, or windy it might be!

Date:

Astronomy

Oct. 02, 2013 Rise Set
Actual Time 6:49 AM MDT 6:30 PM MDT
Civil Twilight 6:21 AM MDT 6:58 PM MDT
Nautical Twilight 5:49 AM MDT 7:30 PM MDT
Astronomical Twilight 5:16 AM MDT 8:03 PM MDT
Moon 4:22 AM MDT (10/2) 5:09 PM MDT (10/2)
Length of Visible Light 12h 36m
Length of Day
11h 40m
Waning Crescent, 6% of the Moon is Illuminated
Oct 2
Waning Crescent
Oct 4
New
Oct 11
First Quarter
Oct 18
Full
Oct 26
Last Quarter

Hourly Weather History & Observations

Time (MDT) Temp. Windchill Dew Point Humidity Pressure Visibility Wind Dir Wind Speed Gust Speed Precip Events Conditions
12:53 AM 46.9 °F - 37.9 °F 71% 29.88 in 10.0 mi SSE 5.8 mph - N/A   Clear
1:53 AM 44.1 °F 39.5 °F 39.0 °F 82% 29.87 in 10.0 mi SSE 8.1 mph - N/A   Clear
2:53 AM 44.1 °F 39.0 °F 39.9 °F 85% 29.85 in 10.0 mi SSE 9.2 mph - N/A   Clear
3:53 AM 44.1 °F 38.6 °F 41.0 °F 89% 29.83 in 10.0 mi SSE 10.4 mph - N/A   Clear
4:53 AM 41.0 °F 38.0 °F 39.9 °F 96% 29.86 in 10.0 mi SW 4.6 mph - N/A   Clear
5:53 AM 43.0 °F 38.2 °F 41.0 °F 93% 29.85 in 10.0 mi SSE 8.1 mph - N/A   Clear
6:53 AM 43.0 °F 38.2 °F 42.1 °F 97% 29.86 in 10.0 mi SSE 8.1 mph - N/A   Clear
7:53 AM 50.0 °F - 46.9 °F 89% 29.88 in 10.0 mi Calm Calm - N/A   Clear
8:53 AM 55.9 °F - 48.9 °F 77% 29.89 in 10.0 mi NW 6.9 mph - N/A   Partly Cloudy
9:53 AM 63.0 °F - 46.0 °F 54% 29.89 in 10.0 mi NNW 10.4 mph - N/A   Clear
10:53 AM 64.0 °F - 41.0 °F 43% 29.92 in 10.0 mi North 16.1 mph 24.2 mph N/A   Clear
11:53 AM 64.9 °F - 39.9 °F 40% 29.93 in 10.0 mi North 16.1 mph 24.2 mph N/A   Clear
12:53 PM 66.0 °F - 37.9 °F 36% 29.93 in 10.0 mi North 17.3 mph 24.2 mph N/A   Clear
1:53 PM 66.9 °F - 36.0 °F 32% 29.91 in 10.0 mi North 15.0 mph 24.2 mph N/A   Clear
2:53 PM 66.0 °F - 34.0 °F 30% 29.91 in 10.0 mi NNE 17.3 mph 24.2 mph N/A   Clear
3:53 PM 63.0 °F - 34.0 °F 34% 29.90 in 10.0 mi NNE 17.3 mph - N/A   Clear
4:53 PM 64.0 °F - 35.1 °F 34% 29.90 in 10.0 mi NNE 15.0 mph 21.9 mph N/A   Clear
5:53 PM 60.1 °F - 35.1 °F 39% 29.91 in 10.0 mi NNE 13.8 mph - N/A   Clear
6:53 PM 54.0 °F - 35.1 °F 49% 29.92 in 10.0 mi NNE 8.1 mph - N/A   Clear
7:53 PM 50.0 °F - 36.0 °F 59% 29.92 in 10.0 mi North 8.1 mph - N/A   Clear
8:53 PM 46.9 °F - 36.0 °F 66% 29.91 in 10.0 mi North 5.8 mph - N/A   Clear
9:53 PM 46.0 °F 43.1 °F 36.0 °F 68% 29.91 in 10.0 mi North 5.8 mph - N/A   Clear
10:53 PM 48.0 °F - 37.0 °F 66% 29.89 in 10.0 mi North 6.9 mph - N/A   Overcast
11:53 PM 48.0 °F - 37.9 °F 68% 29.85 in 10.0 mi NNE 4.6 mph - N/A   Mostly Cloudy